Lid_Strength_Index
-0 -0 0 3 11 12 14 11 9 9 9 7 5 7 8 7 9 12 2 1 0 0 -0 -0 -1 -1 -2 -2 -1 -2 -1 -2 -2 -1 -2 -2 -2 -2 -2 -2 -2 -2 -2 -2 -2 -2 -1 -1 -1
-0 1 2 7 13 16 14 10 10 9 7 6 6 6 7 9 5 5 3 1 0 0 -0 -0 -1 -1 -1 -1 -1 -1 -2 -1 -2 -2 -2 -2 -2 -2 -2 -2 -2 -2 -2 -2 -2 -2 -1 -1 -2
0 1 7 10 13 15 14 9 9 7 6 6 7 5 6 8 4 4 1 1 0 0 -0 -0 -1 -1 -1 -1 -2 -2 -1 -2 -1 -2 -1 -2 -2 -2 -2 -2 -2 -2 -2 -2 -1 -1 -1 -1 -1
2 4 6 12 13 11 10 8 7 7 6 5 6 8 5 3 4 2 1 0 1 0 -0 -1 -1 -1 -1 -1 -2 -1 -1 -2 -1 -1 -1 -1 -2 -2 -2 -2 -2 -2 -2 -2 -1 -2 -1 -1 -1
4 6 12 13 12 9 8 6 6 7 7 7 6 8 7 3 2 1 1 1 1 0 -0 -0 -1 -1 -1 -1 -2 -1 -1 -1 -1 -1 -1 -1 -1 -2 -2 -2 -1 -1 -2 -1 -1 -1 -2 -2 -1
7 7 13 14 11 8 7 6 6 7 6 6 7 7 7 3 2 2 1 1 0 0 -0 -0 -1 -1 -1 -1 -1 -1 -1 -1 -1 -1 -2 -1 -1 -2 -2 -1 -1 -1 -1 -1 -2 -2 -2 -2 -1
8 10 13 12 11 10 8 6 7 7 7 7 5 8 6 4 2 1 1 0 0 0 0 -0 -0 -1 -1 -1 -1 -1 -1 -1 -1 -1 -2 -2 -1 -1 -1 -1 -2 -2 -1 -1 -1 -1 -2 -2 -1
7 9 12 12 12 11 7 6 6 6 7 4 4 8 9 4 2 1 1 1 1 0 0 0 0 -0 -0 -0 -1 -1 -2 -2 -1 -1 -1 -1 -1 -2 -1 -2 -2 -1 -1 -1 -1 -2 -2 -2 -2
4 11 13 11 10 9 7 7 5 4 6 5 4 5 4 2 2 2 2 2 2 1 1 0 0 1 0 -0 -1 -1 -1 -1 -1 -1 -2 -1 -1 -1 -1 -1 -1 -1 -2 -2 -2 -1 -1 -2 -1
9 12 11 8 8 8 7 6 6 6 6 6 5 4 3 3 3 4 4 4 3 2 1 1 0 1 0 -0 -0 -0 -0 -0 -1 -1 -1 -1 -0 -1 -1 -1 -2 -2 -1 -2 -1 -1 -1 -1 -1
8 11 8 8 7 6 7 7 5 7 8 6 7 5 4 4 4 4 4 3 3 2 1 1 0 0 0 -0 0 -0 -0 -0 -0 -0 -0 -0 -0 -1 -1 -1 -1 -1 -1 -1 -1 -1 -0 -0 -1
10 8 7 7 6 7 8 7 7 6 6 4 4 4 4 4 4 4 4 3 3 2 1 1 0 0 0 0 0 0 1 1 1 -0 0 0 1 -0 -0 -0 -0 -0 -0 -0 -1 -1 -1 -1 -1
9 7 7 6 6 6 6 7 7 7 5 4 4 4 5 4 4 3 3 2 2 2 2 1 0 0 0 0 0 0 0 1 1 0 0 -0 0 0 0 -0 -0 0 -1 1 0 -0 -0 -0 -1
7 8 8 8 7 6 7 7 7 6 4 4 5 5 5 4 4 4 3 3 3 2 2 1 1 0 -0 0 0 0 -0 -0 -0 -0 0 -0 0 0 0 0 -0 0 -0 -0 -0 -0 -0 -0 -0
9 10 9 8 9 10 6 10 9 7 6 6 5 5 5 4 4 4 3 3 2 2 1 1 1 0 0 0 0 -0 -0 -0 -0 -0 -0 -0 0 0 -0 -0 0 -0 -0 -0 0 -1 -0 0 0
11 12 13 10 10 9 10 12 9 8 8 6 6 5 5 5 4 3 3 2 2 2 2 1 1 1 0 1 0 0 0 -0 -0 -0 -0 -0 -0 -0 -0 0 0 -0 -0 0 0 1 0 0 0
14 14 14 12 10 10 10 11 9 8 9 8 6 6 5 5 4 3 3 2 2 2 2 1 1 1 1 0 0 0 0 0 0 0 -0 -0 -0 -0 0 0 -0 -0 -0 0 0 1 1 1 1
15 14 14 13 11 10 11 11 9 9 9 9 7 6 6 5 5 3 3 2 2 2 1 1 1 1 1 0 0 0 0 0 -0 -0 -0 -0 -0 -1 -0 0 0 -0 0 0 0 0 1 0 1
13 14 13 12 10 11 11 11 10 10 10 9 8 6 6 5 3 3 2 2 2 2 2 2 2 1 1 1 2 2 2 1 1 -0 -0 -0 -0 -0 -0 -0 0 -0 0 0 0 1 1 1 0
13 14 14 12 10 11 12 12 11 10 9 9 7 6 6 5 4 4 3 2 3 2 2 2 2 1 1 1 1 1 1 1 0 0 0 -0 -0 -0 -0 -0 0 0 0 1 1 1 1 1 1
14 14 13 12 12 12 12 12 12 9 7 6 6 5 6 5 5 5 4 3 3 3 2 2 2 1 1 1 1 1 1 1 1 1 1 0 0 1 0 0 0 0 0 1 1 1 1 2 1
13 11 11 12 14 15 13 16 13 10 9 8 7 6 6 5 4 4 4 5 3 2 2 2 2 1 1 1 1 2 2 3 2 1 1 0 0 1 1 0 -0 0 0 1 1 1 1 1 3
12 11 12 12 14 15 14 15 13 10 11 9 8 7 6 5 5 5 4 3 3 2 2 2 2 1 1 1 1 2 2 2 1 1 1 1 0 1 1 1 -0 0 0 1 1 1 1 1 2
9 11 13 14 15 17 15 15 15 12 11 9 8 7 6 5 5 4 4 3 3 2 2 2 2 2 1 1 1 2 2 2 2 2 2 2 1 1 0 0 0 -0 0 0 0 2 1 1 1
11 14 17 17 17 16 15 15 14 10 9 8 8 7 6 5 6 5 5 4 3 3 3 3 2 3 2 2 2 1 2 2 2 2 2 2 2 1 1 0 0 0 0 0 0 1 1 1 1
13 14 16 19 18 16 15 16 12 8 8 7 7 6 6 6 5 5 4 4 4 3 3 4 3 3 2 2 2 1 1 2 1 2 1 2 1 1 0 0 0 0 0 0 1 1 1 1 1
12 15 13 16 18 18 16 13 9 9 9 8 8 7 7 6 5 5 4 4 4 3 3 5 3 2 2 2 2 1 1 1 2 1 1 1 1 1 1 0 0 0 0 0 1 1 1 1 1
12 11 14 15 19 20 16 15 14 11 10 9 8 8 7 6 6 5 4 4 3 3 3 5 4 2 2 2 2 2 1 1 1 1 1 1 1 1 1 1 0 0 0 0 1 1 2 2 1
12 12 13 14 15 18 19 15 11 10 10 9 8 7 7 6 6 5 4 4 3 3 3 4 4 4 4 2 2 2 2 1 1 1 1 1 1 1 1 1 1 1 1 1 1 2 2 2 2
11 12 13 15 16 15 16 15 9 9 9 8 8 7 6 6 5 5 4 4 4 3 3 3 3 3 3 3 3 2 1 1 2 1 1 1 1 1 1 1 1 1 1 1 2 2 2 3 3